OneWeb SL0366

operational
NORAD ID: 49292 Int'l Des: 2021-090 Owner: ONEWEBN Country: UK Constellation: oneweb
LEOCIRCULARPOLARONEWEB_TYPE

Über OneWeb SL0366

Beschreibung wird geladen...

Live-Position

3D-Globus wird geladen...

Nächste Überflüge

Höhenverlauf

Altitude vs Time

uPlot chart will show altitude changes over time

Zweizeiliger Elementsatz

1 49292U 21090P 26035.83870751 .00000227 00000-0 57794-3 0 9999
2 49292 87.9021 316.1017 0001716 77.3205 282.8117 13.14503615210172
Epoch: 4. Feb. 2026 • Age: 7 hours

Aktueller Status

Höhe 1229.1 km
Geschwindigkeit 7.24 km/s
Subsatellitenpunkt -56.89°S, 38.17°W
Startdatum 14. Okt. 2021
Alter 4.3 years
Typ internet

Technische Details

Klassifizierung Payload
Masse 148.00 kg
Trockenmasse 140.00 kg
Gesamtmasse 148.00 kg
Länge 1.30 m
Durchmesser 1.00 m
Spannweite 5.00 m
Form Trapezoid+2 pan
Hersteller ONEWUS
Bus-Typ ARROW
Phasenstatus In Orbit
Besitzer/Staat ONEWEBN/UK

Große Konstellationen

Loading constellations...